Regional Weather Roundup
Issued by NWS

Home | Current Version | Previous Version | Text Only | Print | Product List | Glossary Off
Versions: 1 2 3 4 5 6 7 8 9 10 11 12 13 14 15 16 17 18 19 20 21 22 23 24 25 26 27 28 29 30 31 32 33 34 35 36 37 38 39 40 41 42 43 44 45 46 47 48

000
ASUS45 KTFX 070910
RWRMT
MONTANA REGIONAL WEATHER ROUNDUP
NATIONAL WEATHER SERVICE GREAT FALLS MT
200 AM MST SUN FEB 07 2016

NOTE: "FAIR" INDICATES FEW OR NO CLOUDS BELOW 12000 FEET WITH NO
SIGNIFICANT WEATHER AND/OR OBSTRUCTIONS TO VISIBILITY.

MTZ001>007-043-071000-
WEST OF THE DIVIDE

CITY           SKY/WX    TMP DP  RH WIND       PRES   REMARKS
KALISPELL      CLEAR     19  16  88 CALM      30.43R
MISSOULA       CLEAR     30  20  66 NW9       30.45R WCI  22
BUTTE          CLEAR     25  12  58 NW8       30.33R WCI  16
MULLAN PASS    CLEAR     20  17  88 SW6       30.35R WCI  12
ANACONDA         N/A     28  12  50 W7        30.35R WCI  21
DEER LODGE       N/A     23  16  74 S3        30.38R
HAMILTON         N/A     30  18  59 CALM      30.41R
LIBBY            N/A     21  19  93 CALM      30.44S
PLAINS           N/A     30  22  72 CALM      30.44R
THOMPSON FALLS   N/A     26  21  81 W1        30.48
$$

MTZ008-052>055-071000-
SOUTHWEST MONTANA

CITY           SKY/WX    TMP DP  RH WIND       PRES   REMARKS
BOZEMAN        CLEAR     27  17  66 S3        30.33S
DILLON         CLEAR     29  16  58 SW16      30.31R WCI  17
ENNIS          CLOUDY    32  14  47 CALM      30.37R
TWIN BRIDGES     N/A     29  11  47 N2        30.28R
$$

MTZ009-010-012-014-046-048-049-054-071000-
EAST SLOPES AND CENTRAL MONTANA

CITY           SKY/WX    TMP DP  RH WIND       PRES   REMARKS
CUT BANK       CLEAR     25  15  66 W17       30.26R WCI  12
GREAT FALLS    CLEAR     23  15  71 SW13      30.28R WCI  11
MALMSTROM AFB  CLEAR     30  16  56 W15       30.29R WCI  19
HELENA         CLOUDY    34  19  54 NW13G18   30.35R WCI  25
CHOTEAU          N/A     32  12  43 W12G18    30.30R WCI  23
CONRAD           N/A     31  16  54 SW13      30.26R WCI  21
$$

MTZ011-013-016-021-045-047-050-051-071000-
NORTH CENTRAL MONTANA

CITY           SKY/WX    TMP DP  RH WIND       PRES   REMARKS
HAVRE          PTCLDY    32  16  51 NW15G22   30.22R WCI  22
LEWISTOWN      CLEAR     26  16  65 NW9       30.22R WCI  17
N BAR RANCH      N/A     28  12  50 NW21G31   30.20R WCI  15
CHINOOK          N/A     34  12  40 W15G21    30.19R WCI  24
$$

MTZ017>020-022>027-061-062-071000-
NORTHEAST MONTANA

CITY           SKY/WX    TMP DP  RH WIND       PRES   REMARKS
GLASGOW        PTCLDY    31  21  66 NW25      30.04R WCI  17
JORDAN           N/A     36  17  46 NW29G40   30.10R WCI  23
SIDNEY         CLEAR     36  19  51 W31G45    29.90R WCI  22
WOLF POINT     CLEAR     34  22  61 W23G32    29.97R WCI  22
MALTA            N/A    N/A N/A N/A MISG      30.08R
PLENTYWOOD       N/A     30  27  86 W30G38    29.81S WCI  15
POPLAR           N/A     34  19  55 W29G37    29.93R WCI  20
SCOBEY           N/A     31  16  54 W35       29.88R WCI  15
$$

MTZ028>42-056>058-071000-
SOUTHCENTRAL AND SOUTHEAST MONTANA

CITY           SKY/WX    TMP DP  RH WIND       PRES   REMARKS
BAKER          CLOUDY    35  19  52 NW29G41   30.00R WCI  22
BILLINGS       PTCLDY    35  14  42 NW15      30.23S WCI  25
LIVINGSTON     CLOUDY    33  15  47 NW17      30.28R WCI  22
MILES CITY     CLEAR     35  19  52 NW24G32   30.09R WCI  23
EKALAKA          N/A     33  16  50 W23       30.00R WCI  20
FORSYTH          N/A     36  14  41 W24G31    30.14R WCI  24
LAUREL           N/A     36  10  34 W15       30.20R WCI  27
ROUNDUP          N/A     35  10  35 W17       30.10S WCI  25
$$

REGIONAL REPORTS...DAKOTAS

CITY           SKY/WX    TMP DP  RH WIND       PRES   REMARKS
WILLISTON      PTCLDY    35  21  56 W23G40    29.83S WCI  23
MINOT          MOCLDY    38  20  48 W24G37    29.69R WCI  27
DICKINSON      CLEAR     32  24  72 W25G36    29.85F WCI  19
BEACH            N/A     32  23  69 W26G35    29.97S WCI  18
CROSBY         FLURRIES  32  32 100 W31G38    29.77R WCI  17
TIOGA          MIX PCPN  32  25  74 NW30G36   29.80R WCI  18
WATFORD CITY     N/A     34  23  64 W23G40    29.82S WCI  22
BISMARCK       CLEAR     39  25  57 W26G35    29.79S WCI  28
GRAND FORKS    SNOW      34  31  88 NW25G32   29.49R WCI  21
FARGO          LGT RAIN  36  32  85 W22       29.56R WCI  25
BUFFALO SD       N/A     35  22  58 NW31G40   29.93R WCI  22
RAPID CITY     CLOUDY    37  16  42 NW26      30.04R WCI  25
$$

REGIONAL REPORTS...WYOMING/IDAHO/WASHINGTON

CITY           SKY/WX    TMP DP  RH WIND       PRES   REMARKS
GILLETTE       CLOUDY    30  21  69 NW22G38   30.15R WCI  17
SHERIDAN       CLOUDY    35  19  52 NW25G31   30.20R WCI  23
BUFFALO WY     FLURRIES  31  20  63 N23G38    30.17R WCI  18
CODY           MOCLDY    27  12  54 SW6       30.21R WCI  20
YELLOWSTONE LA   N/A     19  14  81 VRB6      30.28F WCI  11
IDAHO FALLS    CLOUDY    13  12  96 CALM      30.43S
SALMON         CLOUDY    18  12  79 CALM      30.40R
BOISE          CLEAR     30  27  88 CALM      30.50R FOG
SPOKANE        CLEAR     32  29  88 S8        30.45S WCI  25
$$

REGIONAL REPORTS...ALBERTA

CITY           SKY/WX    TMP DP  RH WIND       PRES   REMARKS
EDMONTON       CLEAR     28  16  59 W16       30.14R WCI  17
CALGARY        CLEAR     30   5  34 W15G22    30.21R WCI  19
LETHBRIDGE     CLEAR     32  16  51 W23G31    30.26R WCI  19
MEDICINE HAT   CLEAR     32  10  40 W24G30    30.21R WCI  19
WATERTON GATE    N/A     30   9  40 W16G24      N/A  WCI  19
CARDSTON         N/A     30   9  40 W13G20      N/A  WCI  20
MILK RIVER       N/A     25  14  63 W15         N/A  WCI  12
ONEFOUR          N/A     27  18  69 NW14        N/A  WCI  15
$$

REGIONAL REPORTS...SASKATCHEWAN

CITY           SKY/WX    TMP DP  RH WIND       PRES   REMARKS
SWIFT CURRENT  CLOUDY    30  19  64 NW36G51   29.95R WCI  14
REGINA         FLURRIES  30  23  74 NW33G44   29.74R WCI  14
SASKATOON      PTCLDY    27  19  74 NW24G39   29.87R WCI  12
VAL MARIE        N/A     32  16  51 NW29G37     N/A  WCI  18
ROCKGLEN         N/A     28  23  80 NW31G43     N/A  WCI  12
ASSINIBOIA       N/A     25  18  74 NW15        N/A  WCI  12
$$



USA.gov is the U.S. government's official web portal to all federal, state and local government web resources and services.